Weather in Rostashi

Russia / Saratov Oblast     51°51′46″N   43°35′48″E
temp.,
°C
wind,
m/s
gust,
m/s
humid.,
%
clouds,
%
prec.,
mm/h
press.,
hPa
HPBL,
m
23 april, fri
fri2301:00+9se227356 0.0 102323
04:00+8sse337659 0.0 102349
07:00+9se357757 0.0 102394
10:00+13se4560100 0.0 1022480
13:00+15sse3455100 0.1 1021924
16:00+15s4453100 0.5 10191458
19:00+12se4674100 0.6 1019283
22:00+10s368687 0.8 1018182
24 april, sat
sat2401:00+9s358928 0.0 1017127
04:00+7sse34925 0.0 101571
07:00+8sse3791100 0.0 1014209
10:00+11s5777100 0.1 1012695
13:00+14ssw8105386 0.4 10101933
16:00+11sw6107656 1.3 10091046
19:00+7w61076100 0.3 10111086
22:00+5wsw71193100 2.1 1011898
25 april, sun
sun2501:00+4wsw81489100 1.4 10111169
04:00+2wsw815825 1.6 1013693
07:00+2w91381100 0.0 1014927
10:00+3wsw81186100 0.0 1016831
13:00+6w686976 0.3 10181307
16:00+9w71041100 0.8 10182476
19:00+8wsw59555 0.0 1018615
22:00+4sw486745 0.0 1019133
26 april, mon
mon2601:00+3ssw476848 0.0 1019107
04:00+3s497130 0.0 1019158
07:00+3s4107196 0.0 1018205
10:00+9sw465240 0.0 1017790
13:00+12ssw554418 0.0 10151874
16:00+13s553893 0.0 10132271
19:00+11s47509 0.0 1012295
22:00+8s4865100 0.0 1011169
27 april, tue
tue2701:00+4wnw6996100 0.0 1012500
04:00+3w588598 0.5 1013721
07:00+3sw47904 0.0 1013346
10:00+7wsw68650 0.0 10131066
13:00+8wsw81147100 0.3 10132488
16:00+9w91239100 0.3 10132946
19:00+8w695277 0.1 10141277
22:00+5wsw4968100 0.1 1016232